QPF
0.00 0.00 0.00 0.00 0.00 0.00 0.00 0.00 0.00 0.00 0.00 0.00 0.00 0.01 0.00 0.00 0.00 0.00 0.00 0.00 0.00 0.00 0.00 0.00 0.00 0.00 0.00 0.00 0.00 0.00 0.00 0.00 0.00
0.00 0.00 0.00 0.00 0.00 0.00 0.00 0.00 0.00 0.00 0.00 0.00 0.00 0.00 0.00 0.00 0.00 0.01 0.00 0.00 0.00 0.00 0.00 0.00 0.00 0.00 0.00 0.00 0.00 0.00 0.00 0.00 0.00
0.00 0.00 0.00 0.00 0.00 0.00 0.00 0.00 0.00 0.00 0.00 0.00 0.00 0.00 0.00 0.02 0.04 0.03 0.00 0.00 0.00 0.00 0.00 0.00 0.00 0.00 0.00 0.00 0.00 0.00 0.00 0.00 0.00
0.00 0.00 0.00 0.00 0.00 0.00 0.00 0.00 0.00 0.00 0.00 0.00 0.00 0.00 0.00 0.02 0.02 0.00 0.00 0.00 0.00 0.00 0.00 0.00 0.00 0.00 0.00 0.00 0.00 0.00 0.00 0.00 0.00
0.00 0.00 0.03 0.01 0.00 0.00 0.00 0.00 0.00 0.00 0.00 0.00 0.00 0.00 0.00 0.00 0.00 0.00 0.00 0.00 0.00 0.00 0.00 0.00 0.00 0.00 0.00 0.00 0.00 0.00 0.00 0.00 0.00
0.00 0.00 0.00 0.00 0.00 0.00 0.00 0.00 0.00 0.00 0.00 0.00 0.00 0.00 0.00 0.00 0.00 0.00 0.00 0.00 0.00 0.00 0.00 0.00 0.00 0.00 0.00 0.00 0.00 0.00 0.00 0.00 0.00
0.00 0.00 0.00 0.00 0.00 0.00 0.00 0.00 0.00 0.00 0.00 0.00 0.00 0.00 0.00 0.00 0.00 0.00 0.00 0.00 0.00 0.01 0.04 0.01 0.00 0.00 0.00 0.00 0.00 0.00 0.00 0.00 0.00
0.00 0.00 0.00 0.00 0.00 0.00 0.00 0.00 0.00 0.00 0.04 0.08 0.17 0.06 0.00 0.00 0.00 0.00 0.00 0.00 0.01 0.02 0.02 0.00 0.00 0.00 0.00 0.00 0.00 0.00 0.00 0.00 0.00
0.00 0.00 0.00 0.00 0.00 0.00 0.00 0.00 0.19 0.63 0.70 0.62 0.55 0.26 0.02 0.00 0.00 0.00 0.00 0.00 0.02 0.05 0.02 0.00 0.00 0.00 0.00 0.00 0.00 0.00 0.00 0.00 0.00
0.00 0.00 0.00 0.00 0.00 0.00 0.01 0.21 0.71 0.55 0.35 0.32 0.28 0.08 0.04 0.11 0.15 0.02 0.00 0.01 0.03 0.02 0.00 0.00 0.00 0.00 0.00 0.00 0.00 0.00 0.00 0.00 0.00
0.00 0.00 0.00 0.00 0.00 0.00 0.02 0.19 0.30 0.47 0.15 0.02 0.07 0.11 0.13 0.15 0.15 0.08 0.03 0.00 0.00 0.00 0.00 0.00 0.00 0.00 0.00 0.00 0.00 0.00 0.00 0.00 0.00
0.00 0.00 0.00 0.01 0.01 0.01 0.10 0.19 0.19 0.12 0.03 0.01 0.08 0.06 0.05 0.09 0.08 0.05 0.00 0.00 0.00 0.00 0.00 0.00 0.00 0.00 0.00 0.00 0.00 0.00 0.00 0.00 0.00
0.00 0.00 0.00 0.01 0.01 0.05 0.22 0.21 0.09 0.01 0.00 0.02 0.12 0.13 0.04 0.04 0.02 0.00 0.00 0.00 0.00 0.00 0.00 0.00 0.00 0.00 0.00 0.00 0.00 0.00 0.00 0.00 0.00
0.00 0.00 0.00 0.02 0.04 0.19 0.32 0.16 0.06 0.02 0.01 0.07 0.08 0.01 0.01 0.00 0.00 0.00 0.00 0.00 0.00 0.00 0.00 0.00 0.00 0.00 0.00 0.00 0.00 0.00 0.00 0.00 0.00
0.00 0.01 0.05 0.07 0.14 0.19 0.16 0.12 0.06 0.02 0.09 0.06 0.01 0.00 0.00 0.00 0.00 0.00 0.00 0.00 0.00 0.00 0.00 0.00 0.00 0.00 0.00 0.00 0.00 0.00 0.00 0.00 0.00
0.03 0.04 0.07 0.08 0.10 0.05 0.04 0.02 0.02 0.01 0.01 0.00 0.00 0.00 0.00 0.00 0.00 0.00 0.00 0.00 0.00 0.00 0.00 0.00 0.00 0.00 0.00 0.00 0.00 0.00 0.00 0.00 0.00
0.05 0.05 0.06 0.06 0.04 0.02 0.01 0.00 0.00 0.00 0.00 0.00 0.00 0.00 0.00 0.00 0.00 0.00 0.00 0.00 0.00 0.00 0.00 0.00 0.00 0.00 0.00 0.00 0.00 0.00 0.00 0.00 0.00
0.07 0.04 0.03 0.01 0.01 0.00 0.00 0.00 0.00 0.00 0.00 0.00 0.00 0.00 0.00 0.00 0.00 0.00 0.00 0.00 0.00 0.00 0.00 0.00 0.00 0.00 0.00 0.00 0.00 0.00 0.00 0.00 0.00
0.01 0.02 0.00 0.00 0.00 0.00 0.00 0.00 0.00 0.00 0.00 0.00 0.00 0.00 0.00 0.00 0.00 0.00 0.00 0.00 0.00 0.00 0.00 0.00 0.00 0.00 0.00 0.00 0.00 0.00 0.00 0.00 0.00
0.00 0.00 0.00 0.00 0.00 0.00 0.00 0.00 0.00 0.00 0.00 0.00 0.00 0.00 0.00 0.00 0.00 0.00 0.00 0.00 0.00 0.00 0.00 0.00 0.00 0.00 0.00 0.00 0.00 0.00 0.00 0.00 0.00
MSLP
1005.84 1007.12 1007.43 1007.64 1007.95 1007.89 1008.39 1008.82 1009.51 1010.43 1011.35 1011.64 1012.10 1012.47 1012.80 1013.03 1013.38 1013.83 1014.09 1014.32 1014.66 1014.74 1014.86 1014.87 1014.77 1014.73 1014.66 1014.65 1014.37 1014.31 1014.21 1014.13 1014.03
1005.36 1005.94 1006.51 1007.03 1007.43 1007.49 1008.02 1008.59 1009.12 1009.84 1010.64 1011.22 1011.63 1012.08 1012.58 1012.98 1013.29 1013.72 1013.98 1014.26 1014.53 1014.69 1014.76 1014.69 1014.68 1014.67 1014.62 1014.63 1014.52 1014.42 1014.24 1014.23 1014.16
1004.99 1005.85 1006.75 1007.51 1007.53 1006.93 1007.57 1008.19 1009.02 1009.89 1010.14 1010.51 1011.10 1011.68 1012.32 1012.90 1013.42 1013.72 1013.89 1014.17 1014.53 1014.71 1014.81 1014.77 1014.74 1014.69 1014.64 1014.67 1014.58 1014.44 1014.33 1014.27 1014.23
1004.19 1004.32 1004.85 1005.19 1006.54 1006.93 1007.37 1008.01 1008.91 1009.55 1009.97 1010.42 1011.01 1011.50 1012.16 1012.81 1013.42 1013.52 1013.93 1014.37 1014.71 1014.82 1014.86 1014.81 1014.81 1014.78 1014.78 1014.62 1014.52 1014.54 1014.46 1014.35 1014.21
1003.88 1004.81 1004.86 1005.10 1006.24 1007.24 1007.49 1008.02 1008.79 1009.00 1009.65 1010.09 1010.60 1011.10 1011.82 1012.60 1013.13 1013.62 1014.10 1014.48 1014.64 1014.78 1014.84 1014.90 1014.98 1014.95 1014.74 1014.63 1014.56 1014.51 1014.59 1014.66 1014.52
1004.41 1004.97 1004.49 1004.00 1006.34 1007.26 1007.43 1007.84 1007.94 1008.42 1009.15 1009.76 1010.32 1010.97 1011.78 1012.55 1013.27 1013.68 1014.16 1014.52 1014.65 1014.82 1014.89 1014.93 1015.20 1015.16 1015.13 1014.99 1014.82 1014.81 1014.78 1014.85 1014.79
1004.83 1005.25 1005.65 1006.11 1006.43 1007.06 1007.74 1007.72 1008.00 1008.61 1009.08 1009.28 1010.05 1010.82 1011.59 1012.63 1013.42 1013.84 1013.98 1014.26 1014.49 1014.75 1014.88 1015.02 1015.36 1015.54 1015.53 1015.57 1015.64 1015.47 1015.19 1015.04 1014.99
1004.97 1005.19 1005.67 1005.69 1005.87 1006.30 1006.87 1007.38 1008.09 1008.16 1009.12 1010.01 1010.64 1011.23 1011.90 1012.40 1012.92 1013.63 1014.31 1014.56 1014.65 1014.90 1015.18 1015.51 1015.84 1015.95 1016.11 1016.08 1016.11 1016.25 1015.93 1015.49 1015.31
1004.93 1005.01 1005.24 1005.15 1005.52 1005.42 1006.47 1007.68 1009.00 1010.04 1010.53 1008.77 1010.55 1011.65 1012.35 1013.01 1013.53 1013.92 1014.24 1014.81 1015.11 1015.25 1015.57 1016.25 1016.78 1017.19 1016.96 1016.76 1016.74 1016.78 1016.40 1016.08 1015.86
1004.34 1004.34 1004.64 1004.84 1005.60 1005.78 1006.78 1008.57 1009.44 1009.37 1010.54 1011.97 1012.44 1012.07 1013.09 1013.63 1014.04 1014.26 1014.66 1015.09 1015.46 1015.68 1016.25 1016.81 1017.38 1017.80 1017.54 1017.38 1017.02 1016.81 1016.76 1016.69 1016.52
1003.69 1003.97 1004.24 1005.60 1005.81 1006.29 1007.15 1009.00 1009.38 1009.65 1009.89 1011.05 1011.95 1012.53 1011.93 1012.73 1013.58 1014.47 1014.86 1015.37 1015.71 1016.02 1016.57 1017.36 1017.91 1018.29 1018.10 1017.75 1017.81 1017.72 1017.37 1017.11 1017.05
1003.37 1003.21 1004.64 1005.33 1006.04 1006.72 1007.43 1008.54 1009.04 1009.82 1010.35 1011.38 1012.02 1012.39 1013.10 1013.30 1014.09 1014.79 1015.18 1015.66 1016.17 1016.51 1017.04 1017.84 1018.30 1018.45 1018.44 1018.51 1018.38 1018.19 1017.96 1017.48 1017.22
1003.83 1004.09 1004.74 1005.50 1006.15 1006.70 1007.47 1008.56 1009.70 1010.19 1010.85 1011.69 1012.18 1012.73 1013.33 1013.85 1014.61 1015.03 1015.54 1016.12 1016.62 1017.10 1017.37 1018.01 1018.36 1018.67 1018.84 1018.74 1018.61 1018.40 1018.11 1017.82 1017.57
1004.77 1004.99 1005.18 1005.69 1006.38 1006.43 1006.85 1008.80 1009.92 1010.76 1011.17 1011.76 1012.27 1012.52 1013.27 1014.13 1014.70 1015.32 1015.90 1016.53 1017.15 1017.46 1017.98 1018.37 1018.56 1018.78 1018.95 1018.86 1018.73 1018.43 1018.26 1018.05 1017.74
1006.54 1006.66 1007.09 1007.05 1006.97 1007.69 1008.30 1008.97 1010.26 1011.07 1011.59 1012.11 1012.73 1012.94 1013.59 1014.77 1015.56 1015.91 1016.38 1016.91 1017.69 1018.04 1018.28 1018.62 1018.94 1019.03 1019.12 1018.86 1018.60 1018.57 1018.37 1017.93 1017.50
1007.82 1006.99 1007.55 1008.24 1008.16 1008.59 1009.37 1010.11 1010.98 1011.53 1012.05 1012.52 1013.14 1014.08 1014.70 1015.19 1015.46 1016.08 1016.55 1017.32 1018.05 1018.39 1018.69 1018.71 1018.92 1018.93 1019.09 1019.04 1018.72 1018.50 1017.95 1017.55 1017.29
1008.25 1007.26 1008.10 1009.05 1009.56 1009.75 1010.16 1010.41 1011.36 1012.01 1012.71 1013.16 1013.60 1014.57 1015.36 1015.75 1015.78 1016.40 1016.80 1017.19 1017.62 1018.09 1018.47 1018.71 1018.82 1018.96 1019.01 1018.94 1018.90 1018.41 1017.88 1017.55 1017.27
1008.61 1008.23 1008.44 1008.87 1009.71 1010.43 1010.80 1011.25 1012.10 1012.68 1013.15 1013.38 1014.13 1014.69 1015.18 1015.46 1015.60 1016.00 1016.66 1016.95 1017.33 1017.73 1017.85 1017.89 1018.27 1018.59 1018.72 1018.76 1018.48 1017.93 1017.63 1017.74 1017.73
1007.86 1008.11 1008.92 1009.82 1010.68 1010.66 1011.20 1011.65 1012.58 1013.00 1013.21 1013.39 1013.86 1014.53 1015.27 1015.69 1016.02 1016.35 1016.72 1017.15 1017.53 1017.38 1017.41 1017.56 1017.76 1017.88 1018.01 1017.81 1017.65 1017.54 1017.54 1017.58 1017.55
1007.16 1008.38 1009.56 1010.59 1010.83 1011.42 1011.57 1012.15 1012.75 1013.19 1013.25 1013.32 1013.76 1014.34 1015.10 1015.80 1016.20 1016.46 1016.92 1017.35 1017.63 1017.82 1017.63 1017.35 1017.28 1017.53 1017.67 1017.51 1017.18 1017.14 1017.03 1017.14 1017.08
Thickness
5840 5826 5822 5822 5821 5824 5820 5816 5812 5804 5794 5792 5789 5786 5782 5779 5775 5769 5765 5763 5759 5757 5755 5754 5756 5755 5755 5754 5754 5753 5752 5751 5750
5837 5834 5827 5824 5824 5825 5820 5817 5813 5807 5799 5794 5792 5787 5782 5777 5773 5766 5762 5759 5756 5754 5754 5754 5754 5754 5753 5752 5752 5751 5750 5747 5746
5839 5833 5824 5818 5821 5828 5824 5819 5812 5804 5805 5799 5794 5788 5782 5774 5769 5765 5762 5757 5751 5748 5748 5750 5750 5750 5750 5748 5748 5747 5746 5744 5744
5846 5846 5841 5835 5826 5824 5822 5818 5809 5805 5802 5797 5790 5785 5779 5772 5766 5765 5760 5754 5749 5745 5745 5747 5747 5747 5746 5745 5744 5743 5742 5742 5741
5847 5833 5836 5834 5823 5814 5815 5812 5805 5805 5801 5797 5791 5787 5779 5771 5766 5762 5756 5751 5748 5746 5743 5743 5741 5742 5743 5742 5741 5740 5737 5735 5735
5834 5826 5834 5841 5817 5807 5808 5806 5807 5805 5799 5794 5789 5784 5776 5769 5762 5758 5752 5746 5743 5742 5740 5739 5737 5735 5734 5734 5734 5731 5730 5729 5728
5826 5818 5816 5814 5810 5804 5796 5803 5804 5798 5795 5795 5786 5779 5773 5762 5755 5751 5748 5744 5740 5737 5735 5733 5729 5726 5725 5724 5721 5721 5722 5723 5720
5817 5812 5811 5811 5809 5806 5802 5802 5798 5798 5787 5778 5772 5765 5761 5759 5756 5749 5739 5735 5733 5730 5725 5721 5717 5714 5712 5712 5711 5709 5709 5711 5710
5815 5814 5815 5818 5816 5818 5808 5800 5784 5768 5751 5734 5748 5741 5746 5748 5744 5742 5737 5729 5724 5721 5716 5708 5702 5696 5697 5698 5700 5698 5699 5699 5699
5818 5819 5819 5820 5814 5815 5807 5786 5778 5766 5740 5756 5750 5739 5741 5736 5732 5732 5728 5723 5719 5715 5708 5701 5693 5686 5687 5686 5690 5691 5690 5688 5686
5825 5823 5821 5810 5808 5806 5798 5783 5780 5775 5771 5763 5755 5746 5747 5738 5732 5725 5721 5714 5711 5708 5701 5692 5685 5679 5678 5678 5677 5677 5678 5677 5673
5830 5832 5817 5811 5807 5801 5793 5784 5780 5772 5765 5756 5745 5741 5734 5732 5725 5718 5713 5707 5701 5698 5692 5682 5676 5672 5670 5667 5666 5665 5665 5665 5664
5826 5824 5817 5810 5804 5799 5787 5779 5770 5765 5757 5748 5741 5734 5728 5724 5717 5712 5705 5699 5693 5687 5683 5675 5669 5664 5661 5660 5657 5657 5657 5655 5653
5813 5812 5811 5808 5799 5795 5772 5766 5763 5753 5748 5741 5736 5733 5725 5717 5710 5703 5696 5689 5682 5679 5672 5665 5662 5659 5655 5652 5650 5649 5648 5646 5644
5790 5792 5790 5790 5790 5779 5762 5765 5758 5749 5743 5739 5731 5727 5718 5705 5695 5692 5686 5680 5671 5665 5662 5657 5653 5650 5646 5644 5643 5640 5638 5639 5638
5772 5782 5780 5774 5775 5771 5763 5755 5746 5739 5734 5728 5721 5709 5701 5697 5693 5685 5679 5670 5661 5658 5653 5649 5645 5642 5638 5635 5634 5631 5631 5630 5628
5762 5776 5770 5763 5758 5755 5750 5746 5736 5727 5721 5717 5712 5700 5692 5688 5687 5678 5671 5665 5659 5652 5645 5639 5636 5632 5629 5624 5621 5620 5620 5618 5615
5753 5761 5761 5759 5751 5745 5739 5733 5724 5718 5714 5711 5702 5696 5689 5685 5681 5675 5666 5660 5653 5648 5643 5639 5630 5625 5621 5615 5614 5614 5612 5606 5601
5753 5752 5748 5742 5731 5732 5727 5723 5712 5709 5707 5704 5698 5690 5681 5675 5670 5664 5657 5649 5642 5641 5637 5633 5626 5621 5616 5613 5610 5606 5601 5594 5588
5755 5746 5735 5727 5725 5718 5717 5710 5704 5701 5700 5697 5691 5682 5672 5662 5656 5651 5643 5636 5630 5625 5622 5621 5617 5610 5605 5602 5601 5596 5591 5584 5579